This demonstration page uses our WeatherBlox Daily Observations layout. Learn more.

Left ArrowRight Arrow

38.88101, -77.10428

Hourly Observations for May 8, 2021

Temp ( °F °C ) Dew Point ( °F °C ) Humidity (%) Winds ( mph kmh ) Pressure ( in mb ) Visibility ( mi km ) Precip ( " mm )
12:52 am 00:52 Partly Cloudy 49 9.4 41 5 74 74 W 7 11 29.91 1013 10 16.0934 N/A
1:52 am 01:52 Mostly Cloudy 47 8.3 40 4.4 77 77 W 6 9 29.9 1013 10 16.0934 N/A
2:52 am 02:52 Mostly Cloudy 47 8.3 40 4.4 77 77 W 7 11 29.9 1013 10 16.0934 N/A
3:52 am 03:52 Mostly Cloudy 46 7.8 40 4.4 79 79 SSW 3 6 29.88 1012 10 16.0934 N/A
4:52 am 04:52 Mostly Cloudy 45 7.2 41 5 86 86 N N/A 29.89 1012 10 16.0934 N/A
5:52 am 05:52 Mostly Cloudy 46 7.8 41 5 83 83 SSW 3 6 29.89 1012 10 16.0934 N/A
6:52 am 06:52 Cloudy with Light Rain 47 8.3 42 5.6 83 83 WSW 5 7 29.9 1013 10 16.0934 0.001 0.001
7:15 am 07:15 Cloudy with Light Rain 48 8.9 43 6.1 83 83 N N/A 29.91 1013 5 8.0467 0.01 0.254
7:29 am 07:29 Cloudy with Light Rain 48 8.9 44 6.7 86 86 W 5 7 29.91 1013 7 11.26538 0.02 0.508
7:52 am 07:52 Cloudy with Light Rain 49 9.4 45 7.2 86 86 E 5 7 29.9 1013 10 16.0934 0.03 0.762
8:52 am 08:52 Cloudy 51 10.6 42 5.6 71 71 NNW 6 9 29.93 1013 10 16.0934 0.001 0.001
9:52 am 09:52 Mostly Cloudy 51 10.6 43 6.1 74 74 NW 13 20 29.93 1014 10 16.0934 N/A
10:52 am 10:52 Mostly Cloudy 55 12.8 44 6.7 67 67 NNW 10 17 29.95 1014 10 16.0934 N/A
11:52 am 11:52 Mostly Cloudy 57 13.9 43 6.1 60 60 N 12 19 29.95 1014 10 16.0934 N/A
12:52 pm 12:52 Mostly Cloudy 59 15 37 2.8 44 44 NW 15 24 29.93 1014 10 16.0934 N/A
1:25 pm 13:25 Mostly Cloudy with Light Rain 56 13.3 40 4.4 55 55 NNW 28 44 29.94 1014 10 16.0934 0.001 0.001
1:52 pm 13:52 Mostly Cloudy 60 15.6 39 3.9 46 46 NNW 16 26 29.93 1014 10 16.0934 0.001 0.001
2:52 pm 14:52 Mostly Cloudy with Light Rain 59 15 38 3.3 46 46 WNW 21 33 29.94 1014 10 16.0934 0.001 0.001
3:52 pm 15:52 Mostly Cloudy 57 13.9 34 1.1 42 42 NNW 22 35 29.96 1015 10 16.0934 0.001 0.001
4:52 pm 16:52 Mostly Cloudy 59 15 34 1.1 39 39 NW 20 31 29.98 1015 10 16.0934 0.001 0.001
5:52 pm 17:52 Partly Cloudy 59 15 35 1.7 41 41 WNW 13 20 29.99 1016 10 16.0934 0.01 0.254
6:52 pm 18:52 Partly Cloudy 60 15.6 33 0.6 36 36 WNW 15 24 30 1016 10 16.0934 N/A
7:52 pm 19:52 Partly Cloudy 58 14.4 33 0.6 39 39 NW 15 24 30.03 1017 10 16.0934 N/A
8:52 pm 20:52 Mostly Clear 55 12.8 35 1.7 47 47 NNW 7 11 30.06 1018 10 16.0934 N/A
9:52 pm 21:52 Clear 54 12.2 34 1.1 47 47 NW 7 11 30.09 1019 10 16.0934 N/A
10:52 pm 22:52 Clear 52 11.1 35 1.7 53 53 NW 6 9 30.11 1020 10 16.0934 N/A
11:52 pm 23:52 Clear 50 10 36 2.2 59 59 WNW 7 11 30.11 1020 10 16.0934 N/A

Powered by AerisWeather